Tracking 19846 objects as of 20-Sep-2019
HD Live streaming from Space Station
objects crossing your sky now

OSCAR 32

Track OSCAR 32 now!
10-day predictions
OSCAR 32 is classified as:


NORAD ID: 19071
Int'l Code: 1988-033B
Perigee: 1,020.5 km
Apogee: 1,305.2 km
Inclination: 90.4 °
Period: 108.5 minutes
Semi major axis: 7533 km
RCS: 1.686 m2 (large)
Launch date: April 26, 1988
Source: United States (US)
Launch site: AIR FORCE WESTERN TEST RANGE (AFWTR)
aabbcc
Your satellite tracking list
Your tracking list is empty




NASA's NSSDC Master Catalog

Two Line Element Set (TLE):
1 19071U 88033B   19262.19985111  .00000040  00000-0  65246-4 0  9996
2 19071  90.3633 302.7897 0188983  19.2423  47.2428 13.27632418520986
Source of the keplerian elements: AFSPC